Вернуться в каталог

BREEZE-M DEB

LostHEO
NORAD 38596·DEBRIS·🇷🇺 Russia

Запущен Mar 14, 2008 с Baikonur Cosmodrome

Loading…

Ближайшие Пролёты (ближайшие 24 часа)

TLE

УстаревшееSource: Space-Track

Эпоха: Sep 8, 2012, 15:14 UTC

1 38596U 08011AT  12252.63481954  .00000459  00000-0  19050-1 0  9997
2 38596 049.1903 318.8068 6366257 134.6615 299.4296 03.06293807 16156

Отслеживайте BREEZE-M DEB в реальном времени с AllMySat

Download on the App Store